Theta_e
333 332 333 332 330 330 333 331 333 335 333 334 332 332 333 333 333 333 331 331 331 330 330 329 330 329 328 328 328 329 330 331 331 331 330 329 329 329 329 329 326 327 328 332 330 331 333 333 331 332 333 332 330 331 331 331 331 330 327 323 322 323 321 322 313 311 315 317 314 311 315 316 313 315 314 314 313 314 314 318 314 313 311 312 309
331 332 333 332 331 331 333 333 332 330 332 333 331 331 331 332 333 331 331 330 330 330 329 329 329 329 328 327 328 328 329 329 329 330 328 329 329 328 328 326 326 326 327 326 329 333 333 332 330 332 333 332 330 328 328 330 331 329 326 322 320 322 323 317 314 312 313 317 313 313 313 316 313 315 316 315 313 313 313 316 315 315 313 314 314
331 332 333 332 332 335 335 334 334 332 331 331 331 331 332 333 332 332 331 330 330 330 328 329 329 328 328 329 328 327 327 327 329 328 329 328 327 327 328 327 326 326 326 326 325 331 332 331 331 332 333 331 331 331 331 331 329 324 322 320 319 319 319 318 316 314 314 314 316 312 314 314 315 314 315 316 315 314 312 315 316 316 315 317 318
332 333 332 334 334 335 334 333 334 331 331 330 330 330 332 332 333 333 332 330 329 331 330 328 327 328 327 326 327 327 327 327 327 327 326 327 326 326 326 327 327 326 325 324 324 327 330 330 330 331 331 330 330 328 331 327 326 324 322 321 319 318 320 322 319 318 316 315 316 313 313 314 314 315 316 317 317 314 314 314 317 318 317 317 319
333 332 331 334 334 333 333 333 332 332 330 330 331 331 332 333 333 332 332 331 330 330 327 327 325 325 326 325 326 326 326 326 326 327 327 327 326 326 325 325 326 325 325 325 328 326 330 330 329 332 332 332 329 328 328 329 324 323 321 320 318 319 320 320 318 318 317 316 316 317 317 315 315 317 316 314 316 317 316 315 315 317 318 318 317
329 327 326 325 330 331 331 332 333 330 330 332 330 331 333 332 333 332 329 329 328 326 324 324 323 323 323 325 325 326 326 326 326 325 325 326 327 327 326 326 325 325 324 324 325 326 327 331 331 330 330 331 329 328 326 325 322 323 322 320 318 319 320 319 319 318 316 315 316 316 318 315 316 317 317 316 315 315 315 316 317 317 316 317 314
323 321 322 322 326 326 329 328 331 332 332 332 331 331 332 332 331 329 328 326 323 323 323 323 323 321 321 322 321 321 322 322 323 324 324 324 324 326 326 326 325 326 325 324 325 326 327 331 331 332 330 331 327 325 325 325 324 324 323 322 320 320 319 318 316 317 318 317 316 317 316 317 318 315 316 318 316 316 316 315 314 315 317 317 316
323 320 322 324 325 328 328 328 328 331 333 331 330 330 330 330 329 327 326 323 323 322 323 323 323 323 322 321 321 322 321 320 320 320 321 323 324 325 326 326 324 326 326 325 325 326 326 330 331 332 331 331 328 327 328 324 323 323 323 323 323 321 320 320 319 318 317 318 316 317 316 315 315 317 317 316 315 314 315 315 313 313 315 317 318
324 324 325 325 326 328 329 328 329 328 329 329 329 328 328 328 327 325 325 326 325 324 323 323 322 321 321 322 321 322 323 323 315 314 319 322 323 323 325 324 324 324 324 324 325 325 325 327 330 328 326 321 309 315 317 319 327 324 324 324 324 322 321 320 319 318 318 318 318 319 318 317 317 316 315 315 313 313 316 317 315 316 316 316 316
327 325 325 326 327 325 327 328 327 324 325 327 326 327 327 326 324 323 323 323 323 322 321 321 320 319 319 320 322 329 323 318 302 296 297 311 321 320 323 324 323 323 323 323 324 324 325 326 326 319 315 314 310 304 303 304 307 322 326 326 327 322 322 321 320 319 319 318 317 317 317 317 317 318 316 317 318 318 316 317 314 315 316 316 319
325 326 327 327 327 325 325 325 326 325 326 327 327 326 326 325 324 323 325 327 326 325 324 322 322 322 322 327 324 320 314 305 294 292 293 293 310 325 321 321 323 323 323 322 322 323 324 323 323 324 323 319 323 300 301 302 301 300 300 303 311 331 323 322 320 321 318 318 318 317 316 318 318 320 319 318 319 317 316 317 315 315 314 312 310
324 324 324 325 324 323 324 325 323 324 325 325 325 326 326 326 325 325 324 324 324 325 326 325 326 325 322 320 316 312 307 295 292 293 293 292 295 313 323 323 321 322 322 322 321 323 323 323 322 322 322 323 320 321 314 301 300 299 298 299 300 298 301 320 322 319 319 318 317 317 317 317 318 319 318 318 317 318 318 317 316 315 314 312 313
320 321 322 322 322 323 323 322 321 321 320 320 320 320 320 320 321 322 322 323 324 323 324 323 321 319 317 314 312 309 304 293 292 292 293 292 293 301 319 322 321 320 321 322 322 322 322 323 323 324 324 322 322 321 321 321 301 296 300 301 300 299 298 298 300 317 319 320 319 318 317 318 318 318 320 319 322 319 318 315 317 316 316 314 314
315 316 319 320 321 322 322 320 319 319 318 318 318 318 318 317 320 320 320 321 322 323 323 320 318 315 313 311 308 304 299 294 292 292 292 291 292 295 318 323 322 322 321 322 323 323 322 322 322 322 323 324 322 325 322 322 321 319 320 320 320 317 299 296 296 292 304 319 319 318 320 321 318 320 327 323 319 317 317 316 319 318 319 319 322
309 308 309 314 319 319 319 317 317 316 316 317 316 315 315 316 317 320 318 319 319 319 319 317 315 313 311 308 305 302 299 291 291 291 292 292 291 295 323 325 322 322 323 323 324 324 324 325 324 324 324 324 326 327 324 322 324 324 322 321 321 321 323 322 319 319 319 320 320 320 322 323 324 330 326 325 324 323 323 323 322 322 323 322 322
304 306 306 305 307 310 312 314 313 312 312 312 312 311 312 313 313 315 314 314 315 317 318 318 316 313 312 310 306 304 301 291 291 291 292 291 292 318 327 324 321 321 321 322 322 322 322 323 323 322 323 323 309 304 309 324 322 323 322 323 323 323 324 320 317 316 325 325 325 324 325 329 308 329 326 330 328 329 324 322 322 322 319 316 314
304 304 304 304 305 305 306 306 307 308 309 310 310 311 312 312 311 312 312 311 310 309 310 311 313 314 312 311 309 305 302 294 291 291 291 291 299 321 323 323 324 324 324 325 323 323 324 324 324 322 327 316 295 293 291 299 320 319 319 320 321 321 321 329 311 305 307 306 303 299 295 295 298 298 298 297 314 321 324 320 319 320 318 314 315
302 303 303 304 304 304 304 304 303 304 305 305 306 308 308 309 310 311 310 309 308 308 308 308 309 310 311 311 309 305 302 295 291 291 291 291 296 316 319 321 321 323 325 327 327 327 325 313 323 326 320 309 292 293 291 307 321 321 321 319 319 319 320 323 328 323 301 299 298 296 295 295 294 293 293 296 296 303 319 313 317 319 317 316 313
303 304 304 304 305 305 306 305 304 304 304 304 305 304 305 305 307 310 310 309 308 308 308 307 308 308 308 308 309 309 305 299 292 291 291 291 297 312 314 315 318 318 318 320 324 324 319 306 299 303 304 297 290 292 292 301 318 322 324 323 320 318 319 324 325 324 322 322 321 320 314 308 309 312 313 298 297 303 316 316 316 317 315 313 315
302 303 303 304 304 304 305 305 305 305 305 306 306 305 305 305 306 307 306 306 305 306 307 308 308 307 307 306 307 308 306 300 295 291 291 292 291 306 313 311 312 312 314 314 315 318 318 310 299 290 290 290 290 289 291 290 305 313 316 321 322 318 315 315 322 325 323 321 323 323 321 321 320 319 317 317 309 310 314 316 317 317 314 317 314
302 302 302 303 303 304 305 306 306 306 306 306 306 306 306 306 306 306 306 308 307 307 306 306 306 306 308 308 305 304 305 303 296 290 291 291 291 295 309 306 304 306 309 309 312 313 315 315 305 291 290 290 290 289 290 290 290 304 312 315 318 303 300 315 316 309 321 322 321 320 322 323 322 322 321 320 318 315 313 315 320 319 318 316 316
301 301 301 302 303 303 304 305 306 306 306 307 307 306 306 307 308 307 306 307 306 306 306 306 307 307 307 308 309 306 303 302 302 293 290 291 290 290 300 301 297 300 304 307 308 310 311 313 307 295 290 290 290 290 290 291 290 300 307 298 294 294 303 307 312 316 319 321 321 319 319 319 320 319 319 320 319 317 316 315 315 318 316 314 314
300 301 301 301 301 302 303 304 305 306 307 307 307 307 307 307 307 308 309 307 307 306 306 307 307 307 307 307 308 308 304 301 296 298 290 290 288 290 289 295 291 303 303 304 305 306 309 310 306 294 291 291 291 290 291 290 292 300 295 293 293 291 296 308 310 312 315 318 318 318 317 318 318 317 318 317 319 317 312 309 308 307 307 306 307
300 300 301 302 302 302 302 303 305 307 307 307 307 307 307 307 306 307 307 307 307 307 307 307 307 307 306 306 308 307 308 304 296 295 296 288 290 288 290 289 290 299 299 301 304 306 307 303 299 291 292 291 291 291 290 290 295 293 292 292 291 293 303 306 307 310 309 311 312 314 314 316 320 318 316 314 311 310 308 307 308 308 307 306 305
298 298 299 301 302 303 303 303 304 305 305 306 306 306 306 307 306 306 307 305 305 305 304 305 304 304 304 306 306 306 307 307 306 298 292 291 291 291 290 287 290 288 301 303 303 303 296 291 291 291 291 290 289 289 291 292 290 289 290 290 292 304 306 307 308 309 308 308 310 312 313 314 316 317 316 312 309 308 306 306 306 305 306 304 303
297 297 298 299 300 301 303 303 304 304 305 305 305 305 306 305 305 305 305 305 304 305 303 303 303 304 304 305 304 305 306 307 307 306 299 297 295 290 290 290 291 291 294 299 292 290 289 290 290 291 292 295 303 304 303 305 293 289 289 291 304 305 307 308 308 308 308 308 308 309 310 312 313 316 314 311 308 306 305 304 302 301 302 301 300
300 300 299 299 299 299 300 299 300 302 303 303 303 303 303 305 305 303 304 304 305 304 304 304 304 303 304 304 304 305 306 306 304 303 303 302 302 302 305 302 293 291 298 304 299 302 304 301 301 296 295 293 293 293 294 295 300 303 306 305 304 307 308 308 309 308 307 308 308 310 311 312 313 311 310 309 308 307 306 303 302 301 300 300 299
298 298 298 298 298 299 299 294 297 300 300 299 299 300 302 303 303 300 299 299 300 302 304 302 302 303 303 303 304 304 305 303 300 299 299 298 299 299 301 302 303 303 302 302 301 301 302 297 299 305 306 305 305 306 306 307 307 306 309 308 308 307 304 302 302 308 308 308 308 309 310 310 310 310 309 308 307 306 304 301 301 298 298 298 295
299 298 299 299 299 300 300 300 300 300 301 299 298 297 297 298 299 301 298 297 296 297 299 300 299 302 303 302 301 303 302 299 296 290 293 289 290 295 297 298 298 300 296 289 295 300 302 303 304 303 304 300 298 303 304 303 302 304 306 306 306 307 307 306 305 305 306 308 307 307 308 309 308 308 306 306 304 303 304 302 300 298 298 298 296
298 297 297 298 299 299 300 300 301 300 301 301 300 296 288 289 293 299 299 290 287 288 290 295 295 297 299 301 300 298 298 295 288 288 288 288 288 288 288 288 288 290 290 287 290 295 297 299 300 300 300 300 299 299 299 300 299 300 300 298 301 304 304 304 305 305 305 302 305 304 303 303 305 305 303 302 302 302 302 297 298 298 296 296 294
297 297 297 297 296 298 300 299 300 301 302 302 302 298 300 296 288 287 290 290 290 288 288 288 287 288 293 297 297 288 288 288 287 288 288 288 288 288 288 288 288 288 288 290 293 295 297 298 298 298 296 300 298 298 299 300 299 300 301 302 303 302 300 303 304 301 300 300 296 300 300 301 300 298 300 299 299 300 298 298 297 297 296 295 294
297 297 297 297 297 298 300 299 300 300 300 301 301 301 301 301 297 290 289 289 289 289 288 288 288 288 288 289 293 299 292 289 287 288 288 288 288 288 288 288 288 288 287 287 292 297 299 298 298 298 298 298 298 298 299 299 300 300 299 300 301 301 299 301 302 304 300 300 299 297 298 298 297 296 297 297 294 296 295 292 294 294 295 295 294
298 298 298 298 298 298 298 299 300 300 300 299 301 300 300 300 300 297 293 289 288 289 289 289 288 289 288 288 287 288 287 288 288 288 288 288 288 288 288 288 288 287 286 290 295 297 298 298 298 300 300 297 299 300 300 300 301 300 301 298 299 300 303 303 298 303 299 297 298 297 297 296 296 295 294 294 292 293 293 292 295 295 293 291 291
298 297 298 298 299 300 300 300 300 300 300 300 299 300 299 300 300 300 298 296 296 292 290 289 289 288 288 288 289 288 289 288 289 288 288 289 288 288 288 292 290 289 290 295 299 298 299 299 299 299 300 299 299 297 298 297 298 300 299 300 301 302 303 303 301 298 297 296 297 296 295 296 295 294 294 293 293 292 290 290 291 290 291 291 289
299 293 289 294 299 299 299 299 299 299 299 300 299 298 300 299 299 299 300 299 300 300 298 296 291 289 295 292 291 289 289 289 289 289 289 289 289 289 289 297 296 298 296 300 301 300 298 299 299 300 300 299 298 298 298 300 299 297 297 297 298 299 298 297 296 296 294 295 294 295 295 294 293 293 292 292 291 290 290 290 290 291 290 290 290
299 299 299 297 299 299 299 300 299 299 299 300 300 298 298 298 298 300 299 300 300 299 299 300 299 291 289 292 289 290 289 289 289 289 289 288 290 289 296 297 298 298 298 300 300 300 300 300 299 300 300 299 300 299 299 299 298 299 298 297 295 295 294 294 293 293 292 292 292 291 292 293 292 291 291 291 290 290 290 290 290 289 290 290 290
299 299 299 299 299 299 300 299 299 298 294 296 298 299 299 299 298 299 300 299 297 299 299 300 300 298 293 296 293 290 289 289 289 289 288 288 288 294 300 298 300 300 298 299 298 299 300 299 299 299 299 298 298 298 298 297 297 297 295 296 295 293 292 292 292 291 292 291 291 290 289 290 290 290 290 289 289 289 289 289 289 288 288 288 288
299 297 297 299 300 300 298 298 298 292 295 298 299 299 299 299 299 297 296 294 296 296 298 299 296 299 297 297 298 298 297 291 288 290 292 292 294 297 297 298 297 297 297 298 297 298 298 298 299 299 299 298 298 297 296 295 295 294 293 293 292 292 291 292 290 290 290 290 290 289 289 289 289 289 289 289 288 288 289 289 289 288 287 287 288
300 290 287 289 293 298 298 298 297 299 298 297 298 297 294 297 297 296 297 296 295 296 296 299 298 296 296 297 298 298 297 297 296 295 295 296 296 297 298 297 297 295 296 296 296 295 296 296 297 298 297 297 297 296 295 294 294 293 292 292 291 292 292 292 291 291 291 290 290 290 289 289 289 289 289 288 287 287 287 287 287 287 287 288 289
298 298 293 289 295 296 296 296 297 298 295 298 297 297 296 295 296 296 296 296 294 295 296 297 296 296 296 298 296 298 296 294 295 295 295 295 294 295 297 295 294 295 294 295 295 295 295 295 296 296 296 296 296 295 295 293 292 293 291 291 290 290 289 290 291 291 291 291 291 290 290 289 289 289 289 289 288 288 287 287 287 288 289 289 289
298 298 293 293 294 297 296 295 297 298 297 297 297 297 296 295 296 295 295 296 294 295 295 295 295 296 296 293 288 287 294 296 296 296 295 294 294 294 295 294 294 294 294 293 293 294 294 294 294 293 292 293 294 294 295 294 294 293 292 292 292 291 291 291 291 291 291 290 290 290 291 290 290 289 288 288 289 289 289 289 289 289 289 289 289
298 298 297 295 294 297 297 296 297 296 296 296 296 296 295 295 297 296 295 294 294 294 295 296 296 295 292 288 289 288 295 297 295 295 296 297 295 294 294 295 295 295 292 293 293 291 292 293 292 291 291 291 292 292 293 293 293 293 293 293 293 292 292 291 290 290 290 290 289 289 289 289 289 290 289 289 290 290 290 289 289 289 289 289 289
297 297 297 298 297 297 296 297 297 297 296 296 296 292 293 294 296 295 294 294 295 294 295 294 295 297 295 292 293 290 297 297 293 295 295 295 295 293 293 294 293 295 294 294 294 293 292 291 291 291 291 291 291 291 291 292 293 293 293 292 292 291 291 291 291 291 291 290 290 289 289 289 289 290 290 290 290 290 290 289 289 289 289 289 289
298 297 297 296 297 296 296 297 297 295 295 292 292 293 293 296 295 296 296 296 295 295 295 294 294 292 293 294 294 295 296 296 296 295 295 294 293 293 294 293 294 293 294 293 293 292 291 290 290 290 290 291 291 291 292 292 293 292 292 292 291 290 291 291 291 291 291 290 290 289 289 289 289 290 289 289 289 289 289 289 289 289 289 289 289
298 298 296 297 296 295 297 297 296 295 292 294 295 295 294 296 295 294 294 294 295 294 295 294 294 294 294 294 295 295 296 296 293 293 293 293 293 294 294 294 293 293 292 291 291 289 290 289 289 288 288 289 290 290 290 290 291 292 292 291 291 291 291 290 291 291 291 290 290 290 290 290 290 290 290 290 289 289 289 288 288 288 288 289 289
298 297 296 296 296 295 296 297 295 296 295 295 295 295 295 295 295 294 294 294 294 294 293 294 293 294 294 294 294 293 294 295 295 293 292 293 293 294 293 294 294 293 292 291 290 289 289 289 289 288 288 289 290 291 291 290 291 291 291 291 291 291 292 292 292 292 291 290 291 290 290 290 290 290 289 290 290 289 289 289 289 289 289 288 288
298 297 296 295 296 294 296 297 296 296 296 295 295 295 294 295 295 294 293 294 294 294 294 295 295 294 294 294 294 294 293 294 293 293 292 292 292 292 291 291 291 291 292 291 290 291 289 290 289 289 289 289 290 290 291 292 291 293 293 293 292 291 291 290 291 291 292 292 292 291 290 290 290 290 290 290 290 290 289 289 288 288 289 289 289
298 297 297 296 296 297 297 297 294 292 295 294 294 294 294 294 295 295 295 294 294 294 295 295 295 295 294 295 294 295 293 294 294 293 293 293 292 291 291 290 290 290 290 289 289 289 289 289 288 288 289 289 289 290 290 291 292 292 292 291 288 286 286 286 290 291 291 292 292 291 291 291 291 290 290 290 289 290 289 289 289 290 289 289 289
298 297 297 297 296 296 296 295 294 295 295 295 293 294 293 295 295 295 295 295 295 295 295 295 295 295 295 296 295 295 295 295 295 294 294 293 293 290 291 290 289 290 290 289 288 288 288 288 288 289 289 289 289 290 289 289 290 290 289 288 285 283 284 284 287 290 288 290 292 291 290 290 290 289 290 290 290 290 290 289 289 289 289 289 289
297 296 297 295 295 295 296 296 296 297 295 296 295 295 294 295 294 295 295 295 295 295 295 295 295 295 295 295 294 295 295 295 294 293 293 293 293 293 292 291 290 290 290 290 290 290 290 289 289 289 289 289 289 289 290 289 288 288 287 285 283 283 283 283 286 285 287 290 291 292 291 290 290 290 290 290 289 289 289 289 289 289 289 289 289
296 296 296 296 295 295 296 296 296 297 296 295 295 295 293 294 295 295 295 295 295 295 295 296 295 295 295 296 294 295 295 295 295 295 294 294 293 293 292 291 290 290 290 290 291 291 290 289 290 290 290 289 290 289 289 288 287 285 283 282 283 283 283 283 285 285 283 286 291 292 291 290 289 290 290 290 290 290 288 289 289 289 289 289 289
Wind_Speed
15 16 13 13 14 13 12 12 11 10 11 10 10 9 9 7 7 7 7 6 7 6 6 7 6 5 5 5 6 6 4 3 2 3 4 4 4 4 4 4 5 5 4 4 4 5 5 6 6 6 7 7 6 8 8 7 7 6 8 6 5 5 6 4 9 9 6 4 6 8 10 10 9 9 10 9 10 8 9 8 11 8 8 7 9
14 14 11 11 13 12 13 13 12 10 10 11 10 10 8 7 7 7 6 7 6 6 7 6 6 6 6 6 5 6 5 4 3 4 4 4 4 4 5 6 5 5 4 4 5 4 5 6 7 7 7 8 9 11 11 8 7 9 9 7 6 6 7 6 9 8 8 6 6 8 9 9 8 10 9 9 10 10 9 8 9 9 8 9 9
13 11 12 12 13 11 11 11 11 9 10 10 10 10 8 8 9 8 7 7 6 5 6 5 6 6 5 5 5 5 6 5 3 3 3 4 4 3 3 3 3 5 5 5 5 5 6 6 7 6 4 6 7 3 3 7 10 10 8 6 6 7 7 5 10 9 9 7 7 8 8 9 7 10 10 9 10 10 10 9 9 8 8 9 8
11 10 10 11 12 12 12 11 10 9 10 9 11 9 9 9 8 8 7 7 6 5 6 5 5 4 4 5 5 5 5 5 4 3 4 4 3 4 3 3 3 3 3 4 5 5 6 6 6 7 7 7 6 7 8 7 6 6 6 6 6 6 4 3 10 9 8 8 8 8 9 8 8 8 9 10 10 10 9 9 9 8 9 8 7
10 10 8 8 10 10 10 9 9 11 11 10 11 11 10 8 8 8 7 6 6 5 5 5 5 5 4 5 6 6 5 5 5 4 4 2 3 4 4 5 4 4 2 1 2 3 6 5 6 6 6 6 6 7 9 10 10 8 8 6 7 5 3 3 8 11 8 8 7 6 9 8 8 8 9 9 10 10 10 10 10 9 9 8 2
11 9 10 7 6 9 7 4 10 12 10 8 10 10 9 8 8 7 7 6 5 5 6 5 5 6 5 4 5 5 4 4 4 3 3 3 2 3 4 4 4 4 2 3 2 3 4 6 6 6 7 5 6 6 8 10 8 8 7 8 7 7 5 5 3 7 10 9 8 6 7 8 8 7 9 9 9 9 9 9 9 9 8 8 7
10 9 7 6 4 6 6 5 1 5 8 5 7 9 9 8 8 7 7 7 6 6 6 6 5 5 5 4 4 3 3 3 2 2 2 4 4 3 3 3 3 3 4 3 2 4 5 7 6 7 5 5 6 7 8 7 6 7 7 5 5 7 6 6 6 4 3 6 7 7 7 7 7 7 8 9 9 8 8 7 8 8 7 8 7
10 10 9 8 3 5 5 5 3 3 5 8 8 7 8 7 7 7 6 7 7 7 6 6 5 3 5 4 4 4 3 2 2 0 4 4 3 4 4 4 4 4 2 2 2 2 4 4 5 3 3 5 6 7 7 7 6 7 7 5 4 7 6 5 5 6 6 5 6 7 7 7 8 7 7 8 8 8 8 7 8 7 7 7 8
9 11 11 10 7 6 6 4 4 4 2 9 9 9 9 9 7 7 7 6 5 6 6 6 5 5 4 3 4 4 4 8 7 6 8 4 3 3 4 5 5 5 5 4 3 2 3 4 4 9 5 4 11 9 8 6 1 5 4 3 4 4 6 6 6 6 6 7 7 7 7 8 7 8 8 7 8 7 7 7 7 7 7 7 8
7 12 13 12 12 9 8 7 6 6 7 9 9 9 9 9 8 8 8 7 7 6 6 6 5 5 5 5 5 7 7 5 9 10 6 5 8 4 3 5 5 5 5 6 4 4 3 4 6 7 7 7 8 9 8 8 9 6 2 4 6 6 5 6 6 6 7 7 8 8 8 8 7 8 8 7 6 6 6 7 8 7 8 8 4
14 13 14 14 13 11 10 8 7 11 12 10 10 10 10 9 9 9 8 7 7 5 4 5 4 3 6 7 8 6 6 6 13 12 12 11 7 7 3 4 4 5 6 4 5 5 3 5 4 5 5 5 4 5 4 6 7 6 7 7 5 1 4 6 6 6 6 6 7 7 7 8 8 7 7 7 7 6 6 6 8 7 8 9 10
12 12 12 13 13 11 11 10 8 8 9 10 9 8 8 8 8 8 7 7 6 6 6 6 7 8 7 8 8 7 6 11 12 12 11 12 9 7 6 2 3 4 5 5 5 5 5 5 6 4 4 4 6 5 3 1 2 4 6 8 8 6 3 1 3 5 6 6 6 7 7 7 7 6 7 8 7 7 7 7 8 8 8 9 9
12 11 11 11 11 10 11 10 9 9 9 9 8 8 8 10 9 8 7 6 6 6 6 6 7 7 8 8 7 7 6 10 10 10 10 10 11 8 7 4 3 5 4 5 5 4 5 5 5 4 4 6 5 6 6 5 4 4 3 3 4 6 8 3 3 3 5 6 5 6 6 5 6 6 7 7 5 7 6 9 9 9 9 9 10
12 11 10 8 8 10 11 11 10 10 9 9 9 9 10 9 7 6 5 5 5 6 6 7 6 7 7 7 7 7 7 9 10 10 10 10 9 8 6 6 3 2 3 3 3 3 4 5 6 6 4 5 3 4 4 6 6 4 3 3 4 6 7 8 9 6 4 4 6 6 6 6 6 6 5 5 6 8 8 8 8 8 8 8 2
12 12 11 9 8 9 9 11 10 10 9 9 10 10 8 7 6 4 4 5 5 6 6 6 6 7 7 7 7 7 5 10 11 12 12 11 11 6 6 3 3 1 1 1 2 2 2 3 3 2 3 4 1 3 3 4 5 5 6 7 8 8 8 8 7 6 6 6 7 7 6 7 7 6 6 6 6 6 6 6 6 6 2 1 4
12 11 12 10 10 9 10 8 10 10 10 10 10 10 8 6 6 5 5 6 6 6 6 6 6 7 7 7 6 6 6 13 13 13 13 13 13 5 5 4 4 4 4 4 3 4 4 3 4 3 4 2 9 8 6 5 5 6 6 7 7 7 8 7 7 9 8 7 7 7 5 1 4 3 4 3 4 5 5 6 5 5 7 7 8
12 12 12 11 11 10 10 10 10 10 10 10 10 9 7 6 5 6 7 6 6 7 6 6 6 5 6 6 6 6 7 11 13 14 14 15 10 5 1 3 2 2 2 2 3 4 3 1 2 4 4 9 11 14 13 9 5 7 8 9 8 8 8 7 10 13 13 9 5 1 2 2 4 2 3 5 4 4 4 7 8 8 8 10 8
11 11 11 10 10 10 10 10 11 10 9 9 9 8 6 5 6 5 7 6 6 6 5 6 6 6 6 6 5 5 6 9 13 13 14 15 11 7 6 2 1 2 1 3 3 0 9 15 9 7 8 7 11 13 13 9 5 7 9 10 10 10 9 8 4 5 2 7 8 7 7 7 6 6 6 6 6 4 6 10 10 8 8 7 7
9 10 11 9 9 8 8 9 10 10 8 8 8 8 6 5 5 5 5 6 5 5 3 5 4 4 5 6 7 6 6 8 12 13 14 15 11 7 7 6 3 3 4 3 1 1 7 11 15 12 9 8 12 12 13 10 6 7 8 9 10 12 10 7 7 4 1 5 5 4 7 7 7 7 8 12 11 8 8 10 9 8 8 10 11
9 10 10 10 9 9 9 10 9 8 8 8 7 6 5 5 5 5 5 4 4 2 3 3 4 5 4 4 5 5 6 6 9 12 13 14 14 9 6 6 6 5 5 5 4 4 8 8 9 11 12 11 11 11 10 10 6 7 8 7 9 8 8 9 7 3 4 5 6 6 7 7 7 7 8 8 8 8 8 9 9 9 12 9 10
11 11 10 10 10 10 9 9 9 8 7 6 5 5 5 4 4 5 4 2 4 3 3 3 3 3 3 4 6 5 5 6 8 12 12 13 15 12 4 7 7 6 6 5 5 5 2 9 6 8 8 8 7 7 7 8 6 5 7 8 7 7 9 8 10 10 9 6 7 8 8 8 8 8 8 9 8 8 9 10 8 8 10 12 9
10 10 11 10 10 10 10 9 8 7 7 6 5 5 4 4 3 3 4 4 4 3 3 3 3 3 3 3 4 5 7 9 6 9 10 11 11 14 8 6 6 6 7 6 6 5 5 4 7 7 9 8 7 6 5 4 6 5 6 8 12 13 9 8 8 9 9 9 8 8 10 9 8 10 10 10 10 8 8 9 11 7 1 2 0
10 10 10 10 10 10 9 9 7 6 6 6 5 5 4 3 3 3 3 4 3 3 2 2 3 3 4 4 4 5 7 7 8 7 5 5 6 6 6 5 10 6 5 5 6 6 5 6 7 13 12 12 10 8 7 9 8 6 9 10 10 9 8 6 7 7 9 10 10 10 10 10 8 9 8 9 7 3 3 4 5 5 4 4 5
9 10 9 9 9 9 8 8 7 7 7 6 6 5 4 3 3 3 2 0 3 3 3 3 3 3 3 4 4 4 5 7 7 8 6 5 4 2 1 1 4 5 5 5 5 6 6 9 10 13 13 12 12 11 11 9 8 11 10 9 9 8 6 6 7 7 7 7 7 9 10 10 6 2 3 4 3 4 5 5 5 5 3 3 5
10 10 10 10 9 8 8 8 8 8 7 7 6 5 5 4 3 3 2 2 2 1 1 2 1 2 1 2 2 3 3 4 5 6 6 7 4 2 2 2 5 3 4 4 5 6 7 9 10 10 10 11 12 12 11 13 13 10 11 11 7 5 6 6 7 7 7 8 9 9 11 11 12 7 3 5 6 5 4 4 6 6 6 6 5
7 9 8 8 9 8 7 8 8 7 7 6 6 6 6 5 5 4 3 3 3 2 3 2 2 2 2 2 2 2 2 2 4 4 3 5 4 6 4 3 5 7 6 6 9 11 11 10 12 12 11 9 7 7 8 7 0 6 9 10 6 7 8 7 8 8 8 8 8 9 9 10 9 3 5 7 6 6 5 5 4 4 4 4 5
4 5 6 6 7 8 8 6 5 7 7 6 6 6 6 5 5 6 6 5 3 3 3 3 3 3 3 3 2 1 2 4 5 6 7 7 7 4 3 4 9 8 7 4 6 6 6 6 7 11 12 15 16 14 13 12 11 9 8 8 8 7 8 8 7 6 8 9 9 9 8 7 4 4 4 5 5 5 6 6 6 6 6 5 5
7 7 7 6 5 5 5 5 4 5 6 7 7 6 6 6 6 7 7 7 7 6 5 5 5 5 4 4 3 1 3 7 8 7 7 7 6 6 6 6 7 7 8 9 9 9 9 10 11 9 8 8 7 6 6 7 8 8 7 7 6 7 7 7 3 6 9 9 10 10 9 9 8 6 3 4 4 3 5 6 6 6 6 6 6
6 7 7 6 5 5 5 5 5 5 5 7 7 7 6 7 7 6 7 6 5 5 6 6 6 6 5 6 5 5 5 7 6 5 5 4 3 5 6 6 6 6 5 7 8 8 7 6 5 6 6 4 4 6 6 7 6 9 10 9 8 8 9 9 10 8 8 8 8 8 8 9 8 4 1 1 3 4 4 5 5 6 6 5 5
6 6 6 6 5 5 4 4 4 4 4 3 6 6 6 8 7 5 4 7 7 7 7 5 5 5 5 5 7 5 5 4 6 7 6 5 4 5 7 9 10 9 11 13 8 6 5 4 3 4 6 5 6 5 5 4 5 5 6 7 6 8 8 8 8 8 8 7 8 7 6 4 6 4 1 3 3 4 4 4 5 6 5 5 5
4 4 5 5 6 6 4 5 4 4 3 3 2 3 5 6 8 9 8 5 5 5 5 5 5 7 5 5 6 12 11 9 10 9 8 7 6 6 7 8 10 12 10 6 3 4 5 3 4 3 3 5 4 5 5 5 5 5 6 6 8 8 6 6 6 4 3 2 3 4 4 4 5 4 3 3 2 4 4 4 5 5 6 6 6
5 5 5 4 5 6 4 3 2 3 3 3 2 2 2 6 5 5 3 3 4 3 5 6 6 7 7 6 5 2 5 9 9 9 8 7 7 7 7 9 11 10 6 4 4 4 4 4 4 4 4 4 4 5 6 6 6 6 6 6 6 6 6 4 5 5 4 2 3 3 3 3 3 2 2 2 0 2 3 3 3 3 5 5 5
4 4 2 0 2 1 2 2 1 1 2 2 2 2 4 1 6 5 3 2 3 4 4 4 5 5 4 4 3 2 4 7 8 8 9 9 9 8 8 10 11 7 2 2 5 3 4 4 4 6 6 4 5 5 7 7 7 6 6 7 7 6 7 3 1 5 4 3 3 4 4 3 3 3 2 0 1 1 1 1 2 2 3 3 3
5 5 5 7 7 3 3 2 3 3 3 2 2 3 2 4 4 2 7 4 3 2 1 2 2 4 1 2 3 3 4 7 8 9 10 10 9 8 5 7 10 6 6 4 4 4 4 6 6 7 7 7 7 5 5 5 6 7 7 8 9 9 9 10 10 6 5 5 5 5 4 3 2 2 2 2 2 3 3 3 4 3 3 3 3
5 4 3 4 6 2 2 2 2 1 1 2 2 1 2 2 1 4 4 1 5 6 6 4 5 9 1 4 3 3 5 5 8 9 11 11 12 12 11 6 4 2 4 6 4 6 6 5 6 6 7 6 5 5 6 7 6 6 5 5 7 8 8 6 5 7 5 5 6 5 4 3 2 1 1 2 3 3 4 3 3 4 3 3 2
1 1 3 5 2 2 3 3 2 3 1 3 3 2 3 1 2 1 2 0 3 2 4 6 6 5 7 4 1 2 3 5 6 8 10 12 14 13 4 3 3 4 5 6 6 6 6 5 6 7 7 7 7 6 7 7 7 7 7 6 5 6 6 6 5 5 4 3 4 5 4 2 2 2 3 4 4 3 3 3 4 4 3 3 2
3 2 2 1 1 2 2 1 3 4 5 5 6 1 1 1 2 2 2 4 4 5 1 3 3 7 6 6 6 7 7 4 6 6 8 10 15 12 5 5 5 7 6 6 6 7 6 6 6 7 7 7 7 7 6 6 7 7 7 7 7 5 4 4 4 4 4 4 4 5 5 4 5 4 4 5 6 6 5 5 5 5 4 5 4
1 3 5 6 4 2 2 1 3 2 7 8 2 2 2 2 1 3 5 1 2 2 4 5 2 5 5 6 6 4 3 7 7 6 5 5 4 5 5 5 7 7 6 6 6 6 6 6 7 7 7 7 7 7 6 7 5 5 4 4 3 2 2 3 4 5 5 5 5 5 5 5 6 6 6 7 6 5 5 4 4 3 2 2 2
5 7 6 3 2 5 5 2 1 3 2 1 2 1 1 2 1 5 4 1 1 1 1 2 5 6 6 6 5 6 5 4 3 5 5 5 5 4 6 6 6 5 6 6 6 6 6 6 7 7 6 6 7 7 7 5 5 5 4 4 4 5 5 4 4 5 5 5 5 5 5 5 5 6 5 5 6 5 4 4 3 2 0 0 0
2 5 5 4 3 4 4 3 1 2 1 3 1 2 1 2 3 0 1 1 0 1 2 5 6 6 5 5 4 5 4 3 4 4 5 5 5 6 6 4 4 6 5 6 5 5 6 6 6 6 7 7 7 7 7 5 4 3 3 3 4 4 4 5 4 4 4 4 4 4 4 4 4 3 3 4 3 3 3 2 1 0 0 0 1
3 1 6 5 1 3 3 2 3 3 1 0 2 1 2 2 2 2 0 0 0 1 3 5 5 6 5 5 9 6 7 4 5 4 4 5 4 5 5 4 5 6 6 5 5 6 6 6 5 5 5 5 6 5 6 4 4 4 4 4 4 4 4 5 5 5 5 5 5 4 2 2 2 2 2 2 3 2 2 2 2 1 1 0 0
4 1 7 7 6 5 4 3 1 4 2 2 3 3 2 1 2 2 1 0 1 0 3 5 5 4 5 5 9 11 6 6 4 5 5 6 6 6 4 6 6 6 4 4 6 5 4 6 5 4 5 5 5 5 4 4 4 4 4 4 5 5 5 5 5 4 4 4 4 3 3 3 2 1 2 5 3 2 2 2 2 2 1 1 2
1 3 3 2 3 5 5 3 0 1 1 2 1 2 1 3 1 2 1 0 1 1 1 1 2 4 5 3 8 9 5 5 5 5 5 5 6 4 4 4 4 6 6 5 6 5 4 4 4 4 4 4 5 4 4 4 4 4 4 4 5 5 4 4 4 5 5 4 4 4 3 3 2 3 5 5 4 2 2 1 2 2 2 2 2
4 3 2 3 3 6 6 1 0 0 3 6 5 4 4 1 1 2 2 3 2 2 2 3 2 1 2 3 3 4 5 5 5 5 5 5 4 3 4 4 5 5 5 4 4 3 3 3 3 4 4 4 4 5 4 4 4 4 4 4 5 5 5 5 5 4 4 4 3 3 2 2 2 2 2 2 2 3 4 4 3 3 2 2 2
3 3 3 4 3 5 3 2 1 2 4 2 3 2 1 1 2 1 1 1 2 3 4 3 2 1 2 1 3 4 4 5 4 4 3 3 3 3 3 3 3 4 3 3 3 3 3 3 3 3 4 4 4 4 4 4 5 5 4 5 4 4 5 4 3 3 3 3 2 2 2 2 2 2 2 1 0 2 3 2 1 1 2 3 2
3 4 3 3 2 3 1 2 1 2 2 2 1 1 2 1 2 2 1 1 2 2 3 3 1 1 1 1 3 3 3 5 5 4 4 3 3 3 3 3 3 3 3 3 3 3 3 3 3 2 3 3 4 4 3 3 3 3 3 3 3 3 3 3 2 1 1 2 2 2 2 2 3 2 2 2 4 3 3 3 2 2 2 2 3
3 4 2 3 1 3 4 2 1 1 1 2 1 1 1 3 2 3 2 2 1 2 2 2 2 1 1 2 2 2 2 2 3 3 3 5 3 4 3 3 3 3 3 3 3 2 3 3 3 3 3 3 2 2 2 2 2 2 2 2 3 4 4 4 5 3 1 2 2 3 3 2 1 1 3 3 2 2 2 2 1 1 2 2 1
4 4 4 3 3 4 3 4 5 3 3 2 1 1 2 2 4 4 5 4 3 2 2 2 2 2 2 3 4 3 2 2 4 3 3 3 3 3 3 3 3 3 3 3 3 3 3 3 3 3 2 2 3 2 2 2 2 3 3 4 5 6 8 9 5 3 3 3 2 1 2 3 3 3 3 3 3 2 2 3 2 2 1 1 2
4 4 4 4 4 2 3 2 6 5 3 3 2 2 4 4 3 3 2 2 2 3 3 3 3 2 2 2 2 3 3 3 3 3 2 3 3 3 2 2 2 2 2 2 2 2 2 2 2 2 3 3 3 3 3 3 3 3 4 4 7 12 11 11 7 5 9 6 2 1 0 1 2 2 2 3 3 2 3 3 3 2 2 1 1
4 4 5 4 3 4 3 3 3 3 2 3 3 3 3 4 3 3 3 3 4 4 3 3 2 3 3 2 2 2 2 3 3 2 4 3 3 2 2 2 2 2 2 2 2 2 1 1 1 2 2 3 3 3 4 4 4 4 4 5 9 10 10 11 9 9 7 5 6 5 4 2 2 2 2 1 1 2 2 2 2 2 2 3 3
5 5 5 5 5 4 3 3 4 3 2 3 4 3 4 3 4 4 4 4 3 3 3 3 3 2 3 3 2 2 2 2 3 3 4 3 3 2 2 1 0 0 2 1 1 1 2 2 2 2 2 3 3 3 4 4 4 4 5 7 8 9 10 9 7 10 11 6 6 2 2 3 3 2 3 4 3 2 2 2 2 3 3 2 3
Wind_Direction
166 162 163 158 156 158 154 159 199 188 175 164 157 152 151 162 159 152 156 156 152 161 160 155 157 159 162 156 168 162 164 182 159 160 157 166 173 183 171 194 194 184 186 214 205 209 191 198 182 208 184 167 160 187 177 183 182 204 203 211 170 201 206 204 134 143 155 149 150 159 155 163 168 173 167 159 165 197 231 163 142 167 185 199 181
166 163 160 156 158 158 160 168 183 182 164 161 161 150 155 165 150 155 158 147 159 161 155 153 155 169 160 175 159 169 174 177 177 187 168 148 158 181 176 187 204 157 187 194 199 218 194 198 195 190 197 169 196 187 169 168 190 194 189 199 156 191 223 180 131 144 148 163 167 159 158 180 174 181 172 166 169 187 207 181 168 197 204 215 186
168 163 162 160 156 157 156 171 168 166 157 160 155 151 159 160 161 155 158 151 159 164 145 148 160 167 167 172 167 169 190 150 188 187 145 169 181 177 175 187 152 152 188 193 184 207 203 196 191 173 205 206 193 154 127 167 183 183 176 198 153 182 212 182 139 144 162 172 173 168 167 184 201 177 183 176 177 190 203 207 190 195 213 216 207
161 156 152 152 158 156 157 162 162 154 156 155 153 159 159 172 157 159 155 156 152 158 139 160 157 165 165 175 172 168 187 147 187 192 176 189 187 165 178 146 167 183 190 208 182 179 219 194 192 175 192 199 181 177 138 185 170 189 198 168 150 192 207 177 142 150 170 166 186 180 171 175 210 197 185 182 183 190 202 213 209 202 216 204 208
139 137 138 139 145 150 150 155 158 156 156 155 156 161 162 161 159 160 151 155 144 142 150 150 162 158 162 178 163 177 178 158 178 202 142 214 218 171 187 172 172 190 150 16 5 184 210 190 197 185 197 187 188 177 171 176 184 185 191 173 155 174 157 225 173 153 165 174 181 205 164 184 194 211 193 189 186 195 204 215 206 213 211 211 166
134 104 84 76 100 99 85 114 158 157 152 146 160 162 158 162 159 153 155 146 141 153 150 147 157 144 170 163 152 160 175 160 175 188 167 192 221 192 213 153 188 171 156 214 173 166 189 253 171 204 195 183 179 191 180 180 178 180 184 194 172 150 180 186 261 168 171 173 175 207 188 183 193 210 205 199 195 194 205 210 220 213 208 205 142
113 108 99 102 88 98 100 136 102 110 123 133 163 156 160 156 156 156 157 132 154 151 145 138 142 167 156 147 144 153 148 163 155 190 180 187 198 194 185 197 192 184 184 187 131 152 201 214 189 182 172 198 180 180 173 180 187 180 183 195 188 153 177 190 199 215 212 187 178 197 201 194 202 199 220 207 203 210 203 211 221 218 214 214 183
137 133 132 125 113 120 159 107 91 90 135 148 154 156 151 153 162 168 136 150 154 152 144 141 143 150 125 157 141 110 119 150 76 48 241 179 198 188 188 208 199 182 208 171 136 169 176 249 183 192 139 184 182 179 175 182 191 184 176 194 191 159 185 200 224 205 202 215 216 204 205 205 195 222 221 210 210 211 217 216 218 220 222 208 217
133 133 139 136 119 95 112 99 72 35 182 144 156 158 158 160 164 148 143 148 136 125 129 130 137 128 137 120 120 135 73 43 32 3 354 8 195 194 220 198 221 196 200 193 177 198 165 176 20 64 66 23 50 42 40 25 174 181 158 189 224 185 189 201 208 225 215 213 218 223 221 208 213 205 219 226 214 222 217 223 239 236 230 226 208
140 141 146 132 123 117 94 116 144 146 205 166 160 151 156 156 148 148 148 139 132 134 132 134 132 135 137 132 90 53 43 42 0 356 1 356 332 261 180 224 211 214 216 208 184 220 157 144 108 104 87 63 56 49 31 35 43 26 352 191 201 211 218 225 217 215 224 218 220 221 223 225 215 213 211 225 231 224 237 236 242 235 240 251 258
141 142 132 131 130 112 101 98 128 171 178 150 144 146 140 137 143 131 110 94 90 87 110 128 132 112 93 74 61 53 41 17 353 359 349 351 341 334 169 214 223 211 221 218 204 194 196 135 124 111 119 84 86 63 39 19 44 27 12 29 43 14 231 218 223 230 229 224 223 229 233 236 228 220 214 221 224 228 239 247 258 255 246 251 250
113 116 120 129 135 132 124 124 109 83 97 119 117 106 112 110 105 99 89 80 74 74 67 77 70 66 66 67 60 51 47 9 1 1 354 344 348 333 312 218 218 227 214 221 204 198 197 160 140 152 167 158 155 148 149 120 38 31 26 5 350 349 79 309 280 255 242 252 243 234 234 229 232 222 234 231 233 214 217 239 248 254 255 245 250
73 77 96 109 119 120 120 125 107 96 89 85 84 77 70 64 52 53 67 72 73 76 76 75 69 70 74 76 69 56 49 10 357 11 355 346 340 333 296 274 203 218 221 219 221 202 197 192 191 176 146 94 174 175 168 166 136 90 25 331 295 284 288 254 226 271 320 304 279 267 258 261 248 233 229 243 230 245 234 229 231 240 252 259 259
71 66 72 76 102 118 123 125 126 112 91 84 74 63 59 65 65 64 65 71 84 95 101 94 93 86 85 86 78 63 42 356 3 12 9 353 340 334 290 290 275 250 227 217 238 228 213 205 203 202 195 183 220 239 234 180 163 184 202 224 230 232 248 260 257 269 281 272 280 276 275 279 269 271 279 275 261 248 243 248 251 249 239 248 276
70 73 66 68 93 109 120 120 109 97 90 88 90 86 85 84 81 76 92 95 94 111 116 101 95 95 90 86 85 64 37 4 16 15 11 359 341 309 285 299 260 274 287 331 282 275 313 316 314 264 214 218 162 32 275 239 193 195 207 211 225 229 212 209 212 218 217 236 246 259 271 272 271 271 266 253 252 259 256 267 272 271 275 219 215
64 70 70 60 57 73 88 91 93 88 84 82 80 80 77 86 98 94 92 85 82 91 94 91 105 106 99 91 87 72 42 18 15 18 11 358 333 275 248 232 227 220 194 206 208 225 228 233 241 257 263 333 31 24 22 351 300 262 250 246 248 244 237 220 188 194 214 218 228 239 255 33 48 3 4 327 240 229 245 251 247 240 241 247 254
57 60 65 60 55 57 62 71 78 78 81 87 84 78 66 62 83 98 98 87 78 73 62 60 61 81 97 98 86 67 45 18 16 17 12 2 349 329 264 243 237 249 232 198 232 236 234 259 294 269 56 55 16 27 11 3 277 265 257 257 249 251 251 234 192 195 202 221 245 347 28 315 298 314 320 333 341 331 264 252 239 235 238 251 254
56 60 60 57 56 55 53 59 67 69 70 79 80 79 80 76 69 75 93 93 70 55 67 67 53 58 60 63 74 90 63 32 22 18 13 7 351 335 318 301 200 286 213 214 259 223 51 44 23 36 57 45 29 27 15 355 279 267 266 263 263 256 256 257 231 210 65 12 352 327 312 295 289 286 272 256 249 252 235 246 250 246 237 242 253
50 58 66 65 64 69 73 70 70 68 63 66 71 80 73 64 72 77 82 87 91 105 106 105 113 82 67 68 36 65 69 46 29 22 16 12 5 342 349 340 6 17 332 292 238 149 101 59 52 56 60 44 33 26 22 8 322 297 295 279 272 271 278 322 313 56 318 248 238 235 261 258 252 249 246 228 218 212 225 241 251 258 264 252 249
56 61 66 67 65 63 68 79 84 83 85 87 85 86 89 83 80 83 89 95 100 101 122 105 101 97 101 90 67 52 69 60 35 31 23 17 8 1 347 1 0 348 333 331 328 295 117 104 69 56 57 40 33 24 13 16 353 326 318 291 274 285 11 330 326 325 227 242 273 272 263 252 232 218 229 215 201 208 218 232 236 235 247 246 249
53 56 57 59 59 58 58 59 69 78 82 81 82 87 88 88 89 93 91 91 115 126 123 116 114 122 124 120 106 83 62 74 56 37 30 23 18 9 14 30 351 339 322 314 296 297 275 106 97 79 70 57 48 25 15 353 351 314 299 288 321 351 324 319 321 324 299 257 233 260 262 251 249 243 233 228 206 200 203 215 216 227 240 252 253
43 51 56 56 56 55 52 54 57 55 54 68 80 80 73 77 98 126 127 121 122 119 134 141 132 126 123 119 108 106 71 57 69 52 40 33 27 24 23 30 4 323 323 313 320 318 321 66 78 31 31 39 31 15 351 326 315 285 274 295 312 328 332 303 295 289 282 274 260 247 248 245 244 248 246 241 234 207 193 201 211 212 53 53 241
39 44 47 50 50 52 53 51 50 53 57 57 60 71 82 91 95 95 110 118 112 127 126 143 164 152 157 141 130 119 120 97 89 93 84 61 45 49 28 18 340 329 339 327 324 321 320 334 35 16 1 357 353 345 323 311 295 269 271 284 298 316 308 289 288 286 277 274 273 267 265 258 256 258 254 268 297 314 69 34 37 46 67 68 64
33 40 43 45 48 47 51 53 48 51 48 55 66 60 57 60 67 67 46 146 142 156 146 162 176 160 169 136 132 123 128 118 108 111 132 142 142 144 149 13 334 1 332 309 318 321 343 359 342 344 341 335 325 315 306 281 258 271 290 293 295 300 290 290 277 273 279 278 278 275 267 264 253 241 297 73 24 353 48 61 58 45 41 53 65
32 35 35 35 39 50 48 47 44 41 41 39 38 46 42 26 48 50 47 52 35 50 94 91 95 87 95 100 102 107 88 114 116 119 126 146 173 191 245 298 291 269 295 337 349 345 339 319 315 308 305 300 291 281 265 256 252 249 243 253 256 258 258 262 270 269 268 262 261 260 260 261 265 277 131 138 124 111 92 79 81 72 68 72 63
31 34 35 36 34 38 43 48 47 39 41 40 37 30 26 28 21 23 27 34 29 26 35 32 48 53 43 75 81 80 109 100 95 104 145 169 190 204 246 234 268 259 262 307 309 304 300 295 297 294 287 281 288 298 308 315 223 222 233 228 237 247 253 260 264 266 266 272 270 269 275 280 278 241 156 142 149 164 157 143 123 115 110 103 95
47 50 48 40 45 47 43 18 29 44 34 39 41 31 20 22 24 20 16 14 19 35 42 36 39 44 47 59 56 92 122 86 55 35 20 6 2 340 197 205 222 249 261 243 246 269 278 272 288 286 280 285 280 276 278 281 287 273 244 217 221 242 249 253 263 285 294 292 288 283 286 288 41 80 156 192 182 168 159 143 145 148 154 158 140
31 36 46 53 45 50 47 6 7 62 55 48 39 28 25 18 36 42 20 11 0 10 21 34 31 27 21 23 15 21 78 64 41 19 10 4 350 342 347 350 2 357 2 357 343 325 313 295 279 262 257 249 250 246 241 247 249 255 286 305 290 279 304 69 58 279 281 288 290 294 298 294 273 266 206 203 196 170 149 163 167 153 156 149 132
35 36 34 35 46 40 50 49 45 42 68 83 70 49 31 19 18 54 51 24 20 8 3 25 23 12 7 24 12 14 30 47 37 28 26 16 335 332 338 353 351 333 8 12 328 310 300 292 306 308 311 315 318 322 331 331 331 325 320 311 307 303 297 289 290 300 299 289 286 288 289 289 286 310 303 168 182 172 169 162 153 146 154 160 154
43 44 33 21 17 33 39 40 48 53 46 79 114 96 52 53 28 14 72 76 57 37 29 37 14 353 355 39 38 10 15 36 35 21 10 336 318 286 292 296 295 283 291 313 315 298 300 292 325 348 343 334 333 330 326 324 317 311 307 293 288 290 293 296 305 307 326 325 323 310 296 282 269 256 234 218 194 181 176 147 149 151 147 147 138
52 51 60 43 358 324 30 24 31 42 55 27 42 128 135 92 69 58 64 87 82 92 88 98 69 33 16 5 47 85 73 49 15 358 343 335 310 298 285 277 272 276 291 316 284 250 261 311 349 336 333 329 325 318 318 313 316 316 310 309 304 296 292 280 267 271 272 298 308 303 304 292 283 272 253 232 183 171 134 129 136 147 146 154 157
33 37 39 41 4 351 56 44 33 37 30 36 23 345 140 128 107 87 60 114 134 104 99 88 77 78 62 52 3 82 61 25 352 334 325 320 314 301 286 271 271 274 292 241 276 293 7 355 349 340 336 329 323 321 322 324 324 318 318 316 317 322 319 357 15 322 298 311 313 299 293 287 288 298 292 268 144 147 148 150 165 159 166 162 154
20 23 50 103 162 224 336 41 54 80 81 27 11 26 348 68 135 129 106 109 32 38 31 62 99 97 112 107 115 97 285 307 320 324 324 320 318 312 300 287 277 270 130 219 244 333 3 349 346 347 346 338 336 336 333 327 321 323 320 325 321 322 328 24 270 345 353 343 333 321 311 303 287 266 253 151 138 134 126 133 127 122 94 87 79
49 6 342 350 327 16 19 41 6 17 10 72 59 351 44 357 349 172 161 156 157 134 131 293 258 145 137 14 53 346 346 334 333 324 321 318 313 304 283 279 275 249 212 282 317 1 347 357 347 349 344 343 337 340 335 327 325 325 324 322 324 327 331 354 359 14 0 346 331 319 309 300 291 257 212 146 111 91 74 74 82 94 81 71 84
90 87 50 321 300 51 11 345 359 93 84 6 68 137 94 9 34 342 357 156 169 166 157 161 197 239 192 175 62 352 327 320 322 317 316 313 309 305 295 251 228 221 204 233 326 359 353 355 352 346 344 345 345 339 335 331 333 325 329 343 344 348 353 5 8 7 3 346 334 328 331 326 291 253 136 112 111 110 110 103 91 85 92 108 111
77 142 170 209 290 39 346 22 327 334 332 124 104 77 344 344 291 92 140 270 328 352 128 137 141 171 157 112 156 251 246 277 304 314 309 312 308 319 321 14 17 13 11 12 1 349 357 2 350 347 347 345 343 344 343 341 339 337 353 349 3 3 7 4 5 0 2 4 7 4 0 12 18 59 66 65 64 76 83 77 69 59 54 70 58
345 28 5 358 16 19 28 34 11 355 325 308 285 113 113 60 320 285 9 47 13 329 311 46 111 149 189 170 183 211 214 239 255 288 308 309 304 300 16 14 13 18 17 20 9 349 349 357 346 346 346 346 350 349 355 344 345 348 359 358 19 19 18 23 19 21 17 24 30 32 33 31 30 40 63 71 69 66 63 61 58 49 39 21 7
274 8 352 8 346 154 178 223 118 248 270 257 246 42 11 27 309 209 135 42 355 318 327 93 62 11 20 19 21 14 265 214 219 268 274 292 325 24 27 23 19 20 14 17 11 352 350 354 354 351 3 1 358 358 1 353 356 7 2 10 21 34 283 57 49 47 44 43 39 32 30 33 32 36 46 57 54 57 60 57 62 62 47 326 284
78 70 40 43 315 328 317 215 208 244 231 331 48 75 64 285 102 349 352 77 71 358 306 12 33 28 21 6 7 323 311 57 33 35 26 25 21 19 31 22 28 24 13 12 6 4 356 358 354 0 9 5 11 12 11 9 11 18 14 14 19 23 26 48 56 51 52 51 47 39 39 39 48 48 49 56 57 54 58 50 49 55 81 248 43
114 126 89 19 274 234 285 312 306 242 310 310 8 355 17 336 324 27 40 27 53 9 13 39 41 31 22 19 24 343 345 36 46 36 35 32 29 23 26 28 21 22 17 11 9 4 2 6 6 8 11 12 16 21 19 22 33 36 37 35 42 40 24 25 45 50 55 57 56 54 50 49 55 69 67 71 78 83 86 97 107 176 123 74 63
307 162 132 157 219 285 240 283 280 312 340 298 300 271 52 4 318 293 81 17 82 107 75 67 64 56 35 4 318 322 306 25 45 47 41 41 34 32 27 28 27 23 20 16 13 12 10 17 16 14 12 8 11 20 23 21 29 44 48 56 61 58 55 53 47 51 51 43 38 45 66 99 111 109 93 106 128 134 143 165 162 103 76 68 119
328 329 155 164 184 213 236 212 167 75 273 278 286 333 345 300 335 352 355 325 70 34 118 122 116 94 54 320 293 296 294 67 43 48 43 42 40 39 31 28 31 33 31 26 21 17 18 23 21 17 15 13 10 10 13 18 25 39 38 42 51 60 63 55 46 35 42 51 44 31 19 8 9 69 162 179 167 148 123 101 109 134 144 121 77
251 314 313 302 316 345 329 320 346 175 149 233 208 161 249 296 308 175 192 220 129 124 122 112 87 79 91 42 332 334 53 63 73 57 52 44 44 41 40 35 32 35 39 35 30 28 30 34 33 37 28 23 24 13 14 13 14 41 52 53 47 51 58 60 53 47 54 48 36 23 16 23 31 37 30 27 25 53 80 85 73 67 54 48 60
295 272 267 282 288 233 189 323 196 152 58 40 1 349 319 143 157 242 160 153 154 133 91 75 67 33 27 162 192 64 60 46 45 51 57 54 48 43 44 43 36 34 36 39 33 33 35 32 22 17 16 16 11 11 15 13 12 25 33 48 56 45 46 42 42 43 38 37 37 29 27 11 27 76 72 47 38 56 41 24 28 38 36 43 42
269 296 319 304 38 333 15 45 357 119 108 195 215 178 190 212 145 147 167 134 117 91 78 79 79 71 76 63 57 56 71 73 60 56 51 55 53 49 46 50 50 47 43 39 31 22 26 30 33 23 11 15 10 10 15 16 14 18 21 23 31 40 38 37 37 35 26 13 34 33 42 34 37 25 46 72 144 76 87 82 65 43 47 37 31
300 308 310 296 292 273 145 107 109 168 186 223 201 143 155 147 136 158 153 121 103 114 122 104 83 62 66 74 72 66 66 78 76 62 55 52 55 51 47 44 53 61 59 53 48 41 29 25 28 26 12 17 18 12 17 20 16 17 16 26 19 12 13 21 25 39 23 353 16 14 357 12 19 39 312 330 47 35 56 47 45 46 58 49 33
284 277 281 266 261 317 334 84 161 62 205 175 187 131 172 140 127 136 149 43 95 123 137 139 130 128 127 93 80 77 81 82 87 101 85 66 55 53 47 40 39 48 53 49 30 38 49 35 30 32 29 17 21 21 14 19 15 5 1 16 24 7 10 352 330 333 27 22 332 350 358 10 31 21 18 21 39 56 64 90 94 64 26 40 37
258 264 278 307 282 238 217 156 134 166 215 169 196 189 145 162 169 175 151 164 188 162 138 129 128 135 133 111 111 99 87 89 90 73 83 85 77 69 61 50 45 55 65 55 46 31 29 32 13 6 6 29 21 23 22 5 14 15 14 37 31 7 342 331 316 346 350 335 347 356 352 10 25 32 40 17 16 9 36 61 55 57 54 53 41
250 259 270 252 266 261 270 230 159 168 158 155 141 210 163 172 174 165 166 168 160 151 144 145 159 147 107 79 81 94 91 78 69 83 92 101 100 94 85 61 59 60 58 59 63 56 49 43 9 12 14 20 30 17 34 28 18 31 26 30 8 353 344 334 326 344 335 308 277 9 7 80 62 62 34 25 10 14 64 62 59 46 50 55 62
244 250 264 272 252 267 249 253 286 239 155 157 178 166 166 174 167 187 168 170 159 155 150 145 137 142 130 112 98 83 88 91 102 100 85 62 75 91 90 88 60 43 48 54 55 52 36 60 55 39 36 29 26 34 40 36 28 25 24 14 357 353 348 336 325 345 342 334 346 28 17 28 32 42 58 79 62 34 38 45 24 33 34 36 39
231 234 248 254 261 242 234 236 230 241 238 208 158 174 165 181 177 171 178 173 173 158 156 152 153 156 159 145 140 133 102 84 73 62 72 84 104 89 80 78 68 85 85 44 26 56 53 23 30 37 50 46 38 49 58 48 40 25 12 360 359 357 353 349 341 331 332 340 321 345 45 6 350 12 40 21 350 49 6 352 12 359 11 26 24